Home > Weather > Pratteln > Past weeks

Flag for Switzerland Past Weather in Pratteln, Basel-Land, Switzerland — Yesterday and Last 2 Weeks

Now
57 °F

Partly sunny.


Feels Like: 57 °F
Forecast: 41 / 66 °F
Wind: 5 mph from Northwest

Location: Bale-Mulhouse

Current Time: May 24, 2016 at 5:44:08 PM

Latest Report: May 24, 2016 at 5:00 PM


Visibility: N/A

Pressure: 29.98 "Hg

Humidity: 72%

Dew Point: 48 °F

Location of PrattelnLocation

Past Weather in Pratteln — Graph

°F

Pratteln Temperature Yesterday

Maximum temperature yesterday: 55 °F (at 12:00 AM)
Minimum temperature yesterday: 48 °F (at 6:30 AM)
Average temperature yesterday: 51 °F

High & Low Weather Summary for the Past Weeks

 TemperatureHumidityPressure
High77 °F (May 21, 3:30 PM)100% (May 10, 5:30 AM)30.21 "Hg (May 10, 5:30 AM)
Low41 °F (May 16, 1:30 AM)36% (May 9, 6:00 PM)29.50 "Hg (May 12, 1:30 PM)
Average56 °F77%29.90 "Hg
* Reported May 9 4:00 PM — May 24 4:30 PM, Pratteln, Weather by CustomWeather, © 2016

Note: Actual official high and low records may vary slightly from our data, if they occured in-between our weather recording intervals... More about our weather records

Advertising

Pratteln Weather History for the Previous 24 Hours

Scroll right to see more
 ConditionsComfort  
Time TempWeatherWind HumidityBarometerVisibility
4:30 PM
Tue, May 24
57 °FPartly sunny.3 mph72%30.01 "HgN/A
4:00 PM57 °FScattered showers. Partly sunny.5 mph77%30.01 "HgN/A
3:30 PM55 °FScattered showers. Partly sunny.6 mph77%30.01 "HgN/A
3:00 PM55 °FScattered showers. Partly sunny.5 mph77%30.01 "HgN/A
2:30 PM55 °FScattered showers. Broken clouds.5 mph77%30.01 "HgN/A
2:00 PM55 °FScattered showers. Broken clouds.2 mph77%30.01 "HgN/A
1:30 PM55 °FScattered showers. Broken clouds.3 mph77%30.01 "HgN/A
1:00 PM57 °FScattered showers. Broken clouds.3 mph67%30.01 "HgN/A
12:30 PM57 °FBroken clouds.5 mph72%30.01 "HgN/A
12:00 PM55 °FPartly sunny.5 mph77%30.01 "HgN/A
11:30 AM55 °FPartly sunny.8 mph77%30.01 "HgN/A
11:00 AM55 °FPartly sunny.9 mph77%30.01 "HgN/A
10:30 AM55 °FPartly sunny.8 mph77%30.01 "HgN/A
10:00 AM54 °FBroken clouds.8 mph82%30.01 "HgN/A
9:30 AM54 °FPartly sunny.7 mph77%30.04 "HgN/A
9:00 AM54 °FPartly sunny.8 mph82%30.01 "HgN/A
8:30 AM52 °FPartly sunny.8 mph88%30.01 "HgN/A
8:00 AM50 °FPartly sunny.7 mph88%30.04 "HgN/A
7:30 AM50 °FPartly sunny.8 mph88%30.04 "HgN/A
7:00 AM50 °FBroken clouds.10 mph88%30.04 "HgN/A
6:30 AM50 °FPassing clouds.9 mph88%30.04 "HgN/A
6:00 AM50 °FMostly cloudy.8 mph88%30.04 "HgN/A
5:30 AM50 °FMostly cloudy.7 mph88%30.01 "HgN/A
5:00 AM50 °FMostly cloudy.8 mph94%30.01 "HgN/A
4:30 AM50 °FMostly cloudy.8 mph94%30.01 "HgN/A
4:00 AM50 °FMostly cloudy.8 mph94%30.01 "HgN/A
3:30 AM50 °FMostly cloudy.7 mph94%30.01 "HgN/A
3:00 AM50 °FPassing clouds.8 mph94%30.01 "HgN/A
2:30 AM50 °FLight rain. Partly cloudy.7 mph94%30.01 "HgN/A
2:00 AM52 °FPassing clouds.9 mph88%30.01 "HgN/A
1:30 AM52 °FMostly cloudy.9 mph88%30.01 "HgN/A
1:00 AM52 °FLight rain. Mostly cloudy.9 mph88%30.01 "HgN/A
12:30 AM52 °FLight rain. Mostly cloudy.8 mph88%30.01 "HgN/A
12:00 AM52 °FLight rain. Passing clouds.8 mph88%30.01 "HgN/A
11:30 PM
Mon, May 23
52 °FLight rain. Mostly cloudy.9 mph88%30.01 "HgN/A
11:00 PM52 °FLight rain. Passing clouds.10 mph88%30.01 "HgN/A
10:30 PM52 °FPassing clouds.12 mph88%30.01 "HgN/A
10:00 PM52 °FLight rain. Partly sunny.12 mph88%30.01 "HgN/A
9:30 PM50 °FLight rain. Partly sunny.8 mph94%30.01 "HgN/A
9:00 PM50 °FLight rain. Partly sunny.8 mph94%30.01 "HgN/A
8:30 PM52 °FLight rain. Broken clouds.7 mph88%30.01 "HgN/A
8:00 PM52 °FLight rain. Broken clouds.6 mph88%30.01 "HgN/A
7:30 PM52 °FLight rain. Broken clouds.7 mph88%30.01 "HgN/A
7:00 PM52 °FLight rain. Broken clouds.6 mph88%30.01 "Hg6 mi
6:30 PM52 °FLight rain. Partly sunny.6 mph88%30.01 "Hg6 mi
5:30 PM52 °FLight rain. Partly sunny.9 mph88%30.01 "Hg6 mi
5:00 PM52 °FLight rain. Partly sunny.10 mph82%30.01 "HgN/A
Weather by CustomWeather, © 2016

See weather overviewHow to use our weather pages